Theta_e
323 322 323 323 323 324 325 328 329 330 334 336 337 334 336 345 348 353 358 355 354 355 356 357 357 356 352 351 350 349 351 351 352 352 351 350 346 345 346 344 343 344 344 345 345 347 349 349 350 350 349 349 349 349 349 348 347 349 350 350 350 349 345 345 347 346 346 347 346 346 345 344 344 344 343 343 344 344 343 340 338 338 338 337 338 343
323 323 323 323 324 325 325 329 331 332 333 335 336 332 333 343 348 350 354 354 354 357 357 356 355 356 355 352 350 349 351 352 351 352 353 351 347 345 345 345 345 345 345 345 345 347 349 350 350 350 349 350 349 348 349 348 346 348 349 350 350 349 345 343 345 346 346 346 346 346 346 345 345 344 344 345 346 345 342 339 337 337 336 335 338 345
323 323 324 324 326 326 327 329 330 331 331 331 331 328 328 339 347 348 351 354 353 356 355 354 354 356 356 354 352 349 350 351 350 351 353 352 349 346 345 346 345 346 346 345 345 347 349 350 350 350 350 350 349 348 349 348 346 348 349 349 350 349 344 342 345 348 348 346 346 347 346 346 345 345 345 346 346 346 345 340 336 335 335 335 339 344
321 323 324 325 326 325 326 326 328 330 329 329 327 322 324 335 346 345 349 354 355 355 353 353 354 356 358 358 355 350 349 350 351 351 352 352 351 349 346 345 345 346 346 345 345 347 348 350 351 350 350 350 349 349 350 350 349 348 349 348 350 349 344 343 347 350 349 347 347 347 347 346 346 346 346 346 347 348 347 341 335 335 336 335 337 341
322 324 325 325 325 324 324 323 325 326 326 328 326 322 322 331 342 346 349 352 354 352 350 353 353 353 359 362 360 356 352 352 353 353 352 351 350 350 348 346 346 345 345 345 345 347 348 350 350 350 351 350 350 350 350 351 350 350 349 348 349 347 343 346 349 349 349 348 348 348 347 346 346 346 346 347 347 349 347 339 334 335 335 336 337 339
323 325 325 324 324 323 323 322 323 324 323 322 324 325 324 326 337 346 350 347 347 348 348 351 350 350 356 359 359 360 360 357 354 351 351 352 349 350 351 347 346 346 346 345 345 346 348 349 350 351 351 351 352 351 350 352 351 351 351 347 346 346 345 348 349 349 349 348 348 348 347 347 347 347 347 347 348 349 346 337 334 336 335 336 338 340
323 324 325 323 323 323 322 321 323 325 321 319 323 326 325 326 330 339 344 340 340 345 349 346 349 349 351 354 357 360 362 360 357 353 350 350 349 349 351 349 346 345 346 346 345 345 347 349 350 351 352 352 353 351 351 353 352 352 353 347 345 347 348 349 350 348 349 349 349 348 348 347 347 348 347 347 348 348 345 337 335 337 335 337 341 342
323 324 325 324 323 322 321 321 322 324 320 318 324 325 325 326 325 329 333 330 331 343 350 345 344 349 350 353 356 357 359 359 358 357 353 350 350 349 349 350 346 344 345 346 346 345 346 349 351 351 352 352 352 352 351 353 352 352 354 349 344 346 347 348 350 349 348 349 350 348 348 348 347 348 348 348 348 347 346 341 340 339 335 339 345 345
325 324 325 325 323 322 323 323 324 324 321 321 324 324 325 326 326 328 326 325 327 334 340 343 341 347 350 353 354 354 357 357 356 359 355 350 349 349 349 350 348 345 345 345 345 346 346 347 351 351 352 352 352 352 351 352 352 351 354 350 343 344 346 346 348 349 347 349 350 348 348 348 348 349 348 348 347 346 346 345 344 341 336 342 349 348
326 325 325 325 323 324 325 326 326 325 323 323 323 323 325 325 327 328 324 326 327 325 330 334 336 345 349 352 353 355 356 356 358 361 356 349 348 349 349 349 349 347 346 345 345 346 345 347 350 351 352 352 352 352 351 352 352 351 353 351 343 341 345 346 346 347 345 346 349 349 350 348 349 350 348 348 347 345 345 345 345 344 340 344 351 350
325 325 325 325 324 324 325 326 325 325 325 323 323 323 324 325 325 330 330 326 323 323 327 326 329 345 350 350 352 355 355 353 357 361 356 350 348 348 349 349 349 348 347 345 344 345 345 347 349 350 351 352 352 352 351 351 352 351 353 351 344 341 344 346 344 342 343 344 345 347 349 348 350 351 348 348 347 344 345 345 345 346 345 345 348 350
325 325 325 324 325 324 324 325 325 326 325 323 324 322 320 325 324 325 330 327 322 324 329 325 330 343 348 349 352 354 355 352 353 356 355 352 349 348 349 350 349 349 347 346 347 347 346 346 347 349 351 351 351 352 351 351 351 351 352 351 346 342 344 345 342 339 339 341 341 343 347 348 349 350 347 348 348 344 344 345 346 347 348 347 346 347
324 325 324 324 325 325 324 323 323 324 325 324 324 319 318 323 323 322 325 326 324 326 327 328 337 346 348 351 353 354 354 352 353 354 353 352 350 349 349 350 351 351 349 349 351 351 348 346 346 348 350 350 351 352 351 351 351 351 352 352 347 343 344 345 342 338 336 338 339 341 345 346 346 347 347 346 348 346 345 346 347 348 349 348 347 347
321 324 325 325 325 325 323 322 321 322 324 324 323 322 321 322 322 323 326 325 324 324 326 333 343 347 348 351 352 353 352 351 353 352 352 352 352 352 352 351 351 351 350 352 353 350 347 347 347 346 348 349 349 351 351 351 352 352 354 353 348 344 345 345 343 339 335 336 338 339 344 345 343 345 347 346 346 346 346 347 348 349 349 347 347 347
318 321 325 325 324 323 324 323 324 325 325 325 325 326 323 320 321 322 323 324 322 322 328 338 344 345 348 350 351 351 350 350 352 352 352 353 352 353 353 352 351 351 351 353 352 348 346 348 347 346 347 348 348 350 351 352 353 353 354 353 347 343 345 345 343 341 337 335 336 337 343 346 343 345 348 347 346 344 343 345 347 348 347 345 346 346
318 320 325 326 324 324 326 326 326 327 325 326 327 325 321 322 325 323 322 322 319 324 336 341 344 347 350 351 350 349 350 351 351 351 352 352 353 353 353 353 352 352 352 352 351 349 348 347 347 348 347 347 348 349 351 352 352 352 352 353 349 343 344 344 342 341 338 337 336 336 339 342 342 344 347 347 345 343 341 341 342 345 343 342 342 342
318 321 326 326 325 326 327 326 326 325 324 326 324 322 323 325 328 324 323 324 320 329 342 344 344 348 348 348 349 349 351 352 352 352 351 352 353 353 353 353 353 353 354 354 352 350 350 348 347 349 347 347 348 349 350 350 351 353 353 353 350 344 343 344 343 342 340 338 338 337 337 339 339 340 343 344 343 344 344 342 339 342 344 344 345 343
320 321 326 327 325 326 327 326 326 325 325 325 320 322 327 328 330 327 325 325 321 329 343 345 344 346 346 347 351 349 349 350 348 349 349 350 349 349 350 351 351 353 355 356 354 351 350 348 348 349 348 347 348 348 349 349 351 354 355 356 354 349 346 344 342 342 342 341 339 338 337 338 339 339 340 341 342 345 348 346 342 343 345 346 347 347
323 319 323 327 325 326 328 325 325 325 326 325 322 325 327 323 327 328 325 324 321 327 342 345 342 344 345 346 347 346 346 346 345 344 345 346 345 346 347 347 349 352 353 355 355 353 350 348 348 349 348 348 348 347 349 349 350 352 354 355 355 354 352 350 348 344 342 342 341 340 339 338 340 343 343 341 342 345 347 346 346 347 346 346 346 348
324 320 321 327 325 325 327 324 322 323 325 325 323 326 326 322 324 327 325 325 322 326 338 343 343 346 346 344 345 345 344 345 346 345 344 344 343 344 346 346 349 351 352 354 355 354 351 349 348 348 348 349 349 348 348 349 350 351 352 352 352 353 353 353 355 353 350 347 344 342 341 340 341 346 348 348 347 348 348 346 347 349 348 347 346 347
324 323 322 326 326 324 323 324 325 325 324 323 323 323 324 323 326 329 327 323 324 326 331 340 344 346 348 346 346 346 344 344 347 347 345 345 345 345 347 348 350 351 351 352 353 353 351 350 349 347 346 349 351 350 347 348 350 349 349 351 353 354 351 347 350 354 354 353 351 348 346 345 343 344 348 352 352 351 350 348 348 349 349 348 347 347
324 326 323 322 322 320 322 326 326 327 327 325 325 324 324 325 325 328 329 326 325 325 325 335 343 347 348 347 346 347 345 344 346 346 345 346 346 347 348 348 349 349 350 351 351 351 351 350 349 347 346 347 351 352 348 346 348 348 348 350 352 354 353 348 348 350 352 354 354 354 352 351 349 347 348 352 354 352 351 349 348 348 348 348 348 348
326 328 323 321 322 321 324 327 326 326 328 326 327 326 325 327 326 324 326 326 326 325 325 334 343 348 347 345 345 346 344 344 345 345 345 346 346 347 348 348 348 348 349 350 351 350 350 349 349 348 348 347 349 352 351 348 348 347 348 348 349 351 353 352 352 351 351 352 353 354 354 353 353 352 350 351 353 353 351 350 349 348 347 347 348 348
326 327 323 322 326 326 325 327 325 326 326 325 327 327 324 325 327 327 327 328 328 327 326 334 343 347 346 345 345 344 344 346 346 346 346 346 346 347 348 348 348 347 348 349 349 350 350 349 348 348 350 350 349 351 353 351 349 347 348 348 347 349 350 350 351 351 351 352 353 353 353 353 352 352 351 349 349 350 350 350 349 349 348 348 348 348
325 328 325 323 325 327 329 330 329 330 329 325 325 326 325 326 328 329 330 333 334 328 326 335 342 346 347 347 346 345 345 346 345 346 346 345 345 346 346 346 346 346 348 349 349 350 350 349 348 348 349 351 350 351 353 353 350 348 348 350 349 347 347 349 350 351 351 350 351 353 353 353 352 352 352 351 349 348 349 349 349 349 349 349 348 348
326 328 326 325 323 324 327 329 329 330 330 327 325 326 326 326 328 331 334 336 335 331 333 339 342 345 349 348 347 346 347 346 345 346 345 345 345 344 344 344 343 344 345 347 348 349 349 349 349 349 349 349 349 350 351 352 352 350 349 349 350 348 347 349 350 349 348 348 350 353 354 353 353 352 352 352 352 350 349 349 348 348 349 348 349 349
328 327 325 327 325 324 327 330 332 329 326 324 325 325 326 325 328 333 335 336 335 333 338 342 343 344 348 347 347 348 348 346 346 345 345 345 344 343 343 342 342 343 343 344 345 346 348 348 348 349 349 348 348 347 348 348 349 350 350 350 352 351 350 349 351 350 347 346 348 351 352 353 353 352 351 350 350 350 349 349 349 349 349 348 347 348
328 325 323 326 325 324 327 327 327 326 323 323 322 322 323 323 325 330 329 333 338 337 337 343 344 343 345 347 347 348 347 346 345 344 344 343 342 342 342 341 341 342 342 343 344 344 346 347 347 347 348 348 348 347 347 345 344 346 349 351 353 353 353 353 354 354 350 348 349 350 351 351 351 350 349 347 347 347 348 349 349 349 350 349 347 346
326 323 322 321 321 322 323 324 324 325 323 323 321 320 321 320 322 326 324 330 343 342 341 346 346 344 345 347 346 346 346 344 344 344 343 342 341 340 340 340 340 340 341 342 343 344 345 345 345 346 345 347 347 348 348 346 344 343 345 346 346 347 350 353 354 355 355 354 355 355 352 350 349 349 349 349 349 349 349 349 348 348 348 348 348 346
325 325 324 321 320 323 324 325 326 325 323 323 323 322 322 322 323 323 323 332 343 344 344 347 348 348 347 345 345 345 343 343 343 343 342 341 340 339 338 339 339 339 340 341 341 343 344 344 344 344 344 345 346 347 348 347 348 347 345 343 342 341 346 350 351 351 352 354 356 356 355 352 352 353 354 354 353 352 351 350 349 348 347 348 349 348
325 327 326 322 322 322 323 324 325 325 323 322 323 324 323 322 322 322 325 335 342 344 345 346 348 349 347 343 344 343 342 342 342 341 341 340 339 338 337 338 339 339 339 340 340 341 341 342 343 343 343 344 344 346 347 347 348 349 347 346 343 342 345 348 350 349 349 352 354 354 353 352 352 353 353 353 352 351 351 350 350 349 349 349 349 347
326 328 326 323 322 322 322 322 322 323 322 321 322 325 325 322 322 326 331 335 339 343 346 346 346 347 346 342 343 342 341 341 341 340 340 339 338 338 337 337 338 339 339 339 339 339 339 341 342 341 342 343 343 345 346 347 347 348 349 348 346 345 344 345 347 349 349 349 351 351 349 348 349 349 348 348 348 348 349 349 349 349 349 349 349 348
327 329 327 324 323 322 321 321 321 321 321 321 324 327 328 326 326 330 335 335 335 339 343 345 345 347 345 342 343 343 341 340 340 340 339 338 337 337 336 335 336 336 338 338 338 339 340 340 341 341 342 343 344 344 345 347 347 347 349 349 348 347 345 343 345 346 345 345 346 347 347 346 345 345 347 348 347 348 348 349 349 350 350 350 350 349
329 332 332 327 323 321 322 322 323 323 321 324 330 330 328 329 329 330 333 334 334 336 340 343 345 345 344 342 342 342 341 339 339 339 338 337 337 336 335 335 335 335 336 337 338 339 339 340 341 342 342 344 344 344 345 346 347 347 348 348 348 348 347 346 346 346 346 345 344 344 343 342 341 343 347 349 349 349 349 349 350 350 350 351 350 349
330 333 332 326 322 322 323 322 322 323 326 331 334 332 330 330 327 329 333 334 334 336 339 342 342 342 342 341 340 340 340 339 339 338 338 337 337 336 335 334 334 335 335 335 337 338 339 339 340 341 342 342 343 344 344 345 345 345 345 346 347 347 347 347 347 347 348 348 348 346 344 343 343 343 345 348 350 350 349 349 349 349 350 350 350 350
330 332 331 327 324 323 322 321 322 325 330 334 332 330 331 329 325 330 336 337 336 337 339 340 341 341 341 340 340 339 339 339 338 338 338 337 337 336 334 332 332 333 334 335 335 336 337 338 339 340 340 340 340 341 342 342 343 343 343 344 345 345 345 346 346 346 346 346 347 347 346 346 347 346 345 347 349 349 349 349 349 349 350 350 350 350
327 331 331 326 323 323 321 321 324 325 330 336 334 329 331 330 330 336 339 339 337 337 338 339 340 340 340 339 339 339 338 338 338 337 337 336 336 335 333 331 331 332 334 334 334 334 335 336 337 338 339 339 338 337 337 339 340 340 340 341 342 343 343 343 344 344 344 344 345 345 346 346 347 347 347 348 348 348 349 349 349 349 350 349 350 350
326 331 334 326 322 325 323 322 322 320 326 338 337 329 329 330 330 335 339 340 339 337 337 338 338 339 338 338 339 339 338 338 339 338 337 335 334 333 330 329 329 330 332 333 333 333 333 334 334 335 336 337 336 335 334 334 335 336 336 337 339 340 340 341 341 342 343 343 342 342 343 344 344 344 344 345 345 346 346 346 345 346 346 347 347 346
324 331 337 328 322 323 321 321 320 320 329 343 340 329 326 328 328 331 337 341 341 336 337 338 337 337 338 338 338 338 339 342 341 338 337 335 333 330 327 326 326 327 328 330 331 333 333 333 333 333 333 334 334 333 333 331 331 331 331 331 335 336 335 336 338 339 339 339 339 340 341 341 341 341 341 341 341 341 341 341 340 339 339 339 339 339
329 334 334 326 321 323 321 320 320 324 337 346 339 330 327 328 329 329 332 338 340 335 337 339 337 337 338 338 338 338 340 342 341 337 336 335 334 331 328 325 324 324 326 327 328 331 332 331 331 332 333 333 332 332 332 331 330 329 326 324 327 329 327 327 330 333 334 335 336 337 337 338 339 340 340 340 339 339 338 338 337 336 336 337 338 338
331 331 330 326 323 323 322 320 319 326 339 342 333 329 326 327 331 331 331 338 338 334 336 338 337 338 338 337 338 338 337 337 336 336 336 335 333 331 329 326 324 323 324 325 327 330 331 330 331 332 332 332 332 331 331 330 330 328 325 322 322 322 321 319 321 323 324 327 331 332 333 334 335 337 337 338 339 339 339 339 338 338 338 338 338 339
329 328 328 328 325 323 323 321 319 326 335 332 327 327 325 331 338 336 335 336 334 333 336 336 337 338 338 337 337 336 334 334 335 336 336 334 331 329 328 326 324 322 322 323 325 328 329 330 331 331 331 332 332 330 329 328 328 327 325 324 324 325 324 322 321 320 319 320 323 326 328 330 331 333 334 335 336 337 338 339 339 339 338 337 337 338
329 325 324 326 324 323 323 320 319 327 333 330 330 334 333 336 340 337 334 334 334 334 335 335 335 335 335 336 337 335 335 336 336 335 334 332 330 328 325 323 321 321 322 322 323 325 327 329 330 330 330 330 328 325 322 320 321 322 322 324 326 326 325 325 324 324 323 321 321 321 322 324 326 328 330 331 333 334 335 336 337 338 338 338 338 338
331 325 326 331 330 325 324 323 324 330 333 329 333 338 336 334 335 334 333 334 334 334 334 334 334 333 334 336 337 335 336 336 335 334 332 329 328 325 323 322 321 321 322 321 322 322 323 324 323 323 323 322 322 324 324 322 320 319 321 323 324 323 325 326 325 324 323 322 319 317 315 316 319 321 322 325 327 328 330 332 334 335 336 337 337 338
331 333 336 340 338 333 332 333 331 329 330 329 330 333 333 332 332 332 332 333 334 333 333 333 334 334 336 337 336 336 337 336 334 333 330 328 327 326 325 324 323 322 321 321 321 321 321 321 320 319 319 319 321 326 329 328 326 325 325 326 325 324 325 327 326 324 323 320 317 315 313 312 313 315 316 318 320 322 325 328 330 331 332 333 334 334
330 332 335 338 338 335 333 334 331 328 329 330 329 330 331 330 329 329 331 333 333 333 332 332 333 335 336 336 336 337 336 335 334 333 331 330 329 327 327 326 323 322 321 321 321 322 321 323 324 324 324 324 323 325 329 330 329 329 329 329 329 328 327 327 327 326 324 322 320 318 316 312 310 310 311 312 313 314 317 321 325 328 331 332 333 333
334 327 330 334 335 333 334 336 334 329 328 330 329 329 329 328 328 329 332 333 332 332 332 331 331 333 334 335 336 336 336 335 334 332 330 329 328 327 326 326 324 323 323 323 323 323 322 323 324 325 325 326 324 322 323 326 328 329 329 329 329 329 329 329 329 328 327 325 322 321 319 317 314 311 311 312 314 313 312 312 314 317 320 323 325 326
334 327 330 334 333 333 338 338 332 325 327 330 330 328 328 329 330 331 331 332 331 332 333 331 330 332 333 334 335 336 335 334 333 331 329 327 326 326 325 325 325 326 327 327 327 326 324 322 322 322 323 323 321 318 315 315 317 321 323 325 327 328 327 327 327 329 328 325 324 323 322 320 319 317 316 318 320 319 317 316 314 313 313 314 314 313
330 330 334 334 332 334 338 336 329 328 331 330 328 328 328 329 331 331 331 332 332 333 333 331 331 331 331 333 335 335 335 334 331 329 327 326 325 325 325 326 327 328 328 329 329 328 325 322 321 321 320 318 318 317 314 312 312 313 316 322 327 328 326 324 324 326 327 326 325 325 325 323 323 322 321 322 323 323 322 322 320 319 319 318 317 315
328 331 333 332 330 333 337 335 332 334 336 331 328 329 329 329 331 332 331 331 331 332 333 332 331 330 331 333 335 334 334 333 331 328 327 326 326 326 328 328 328 329 329 329 328 328 327 324 321 320 319 318 317 316 315 314 314 313 316 323 328 328 327 325 323 323 325 326 325 326 326 326 326 325 324 325 326 325 324 325 323 322 322 322 320 319
328 330 331 331 330 331 333 332 330 332 334 332 329 330 330 330 331 331 331 331 330 329 331 333 332 331 332 333 334 334 333 332 330 328 327 327 326 327 329 329 328 328 329 329 328 329 329 327 324 323 324 323 321 320 318 317 316 315 315 320 325 326 325 324 321 319 320 322 322 324 325 326 327 327 326 326 326 326 326 325 324 323 323 323 322 321
Wind_Speed
12 4 4 6 7 10 11 12 10 9 5 6 4 4 5 8 5 7 7 8 11 6 3 6 6 6 7 5 6 8 9 8 8 8 6 7 5 14 15 16 18 17 15 15 17 17 17 17 18 20 17 16 19 20 21 20 18 21 22 21 19 16 15 17 17 17 19 20 18 17 20 20 21 22 20 20 19 18 17 17 17 17 18 19 17 15
11 5 6 10 12 14 12 11 8 4 4 2 2 4 3 7 7 8 10 10 10 4 3 7 7 5 5 5 6 9 7 6 7 6 4 6 2 11 13 13 17 16 16 16 18 19 18 18 19 19 18 17 20 22 21 20 20 20 21 22 20 17 17 18 17 17 17 18 17 17 19 20 20 20 19 19 18 16 16 17 18 18 19 19 17 16
7 6 9 11 9 8 5 3 2 4 5 4 3 3 0 6 9 7 9 12 8 2 3 6 7 5 5 5 6 9 7 7 8 6 5 4 2 10 12 8 13 15 16 17 18 19 18 18 19 18 18 19 20 21 20 19 19 20 21 22 21 18 18 20 19 17 15 14 13 14 17 19 18 17 17 17 15 14 13 14 16 18 18 18 17 16
4 6 8 4 3 5 7 9 8 4 3 3 4 3 1 7 10 5 7 13 8 3 7 6 5 4 4 4 3 7 9 8 8 7 7 6 4 3 8 10 14 17 16 17 19 20 19 18 18 19 19 20 20 20 19 19 19 19 20 22 22 18 19 22 21 18 16 14 12 11 12 15 14 13 16 16 14 15 13 14 16 17 18 18 18 16
5 6 2 5 7 6 5 6 7 4 3 4 5 5 4 6 10 9 8 11 6 3 10 9 4 1 2 4 2 3 4 2 2 6 8 9 7 4 6 9 11 14 16 18 18 19 21 21 20 19 20 20 20 20 20 20 19 17 18 21 22 20 21 23 21 20 20 18 16 15 14 17 15 12 16 18 18 17 14 15 18 18 19 18 17 16
5 4 7 6 5 3 1 3 4 3 3 4 6 8 8 5 8 15 13 10 6 2 9 10 4 1 2 4 2 1 2 2 3 4 7 10 9 3 6 9 8 7 10 17 19 19 22 23 21 19 20 21 19 20 21 19 19 18 17 18 21 21 22 23 22 22 23 21 21 20 20 22 21 18 19 21 22 19 15 17 18 17 18 17 16 15
2 3 5 1 4 4 3 4 5 5 4 4 5 6 7 6 5 15 16 10 5 4 10 9 4 1 2 3 1 2 2 0 4 4 6 10 11 6 4 7 8 8 10 13 15 19 21 22 23 21 20 20 19 19 20 19 19 19 17 17 19 22 23 23 23 24 24 23 23 22 22 23 23 22 21 20 21 18 14 17 17 16 18 18 16 14
4 3 3 2 2 4 4 4 6 6 4 3 5 9 8 6 3 6 9 5 3 5 5 6 3 5 2 1 1 2 2 1 3 3 6 9 11 10 7 7 12 13 12 15 13 17 21 23 24 23 21 20 19 19 19 20 20 19 18 16 19 22 23 24 24 25 25 25 24 24 23 22 22 22 20 19 19 16 13 14 13 15 18 16 14 13
3 2 3 1 3 3 4 2 2 2 2 2 7 9 8 7 6 4 2 2 1 6 2 7 6 5 1 2 2 2 3 2 4 3 5 9 11 11 10 9 12 15 15 14 12 14 19 25 24 23 23 20 19 19 19 21 21 20 18 16 19 21 21 23 25 25 26 25 24 25 25 22 21 21 19 17 17 15 16 16 12 13 17 15 13 13
0 2 2 1 2 1 4 5 4 3 2 4 7 6 5 4 4 3 2 2 4 4 2 8 8 5 1 3 2 1 2 4 5 4 6 12 13 13 13 13 13 14 15 16 14 13 16 23 25 22 23 21 20 20 20 22 22 21 19 17 19 22 20 22 25 25 25 25 25 24 23 22 21 21 20 18 17 17 17 18 14 13 16 16 15 15
2 2 2 1 3 1 2 4 1 1 4 1 2 4 4 4 3 3 2 1 2 1 5 8 7 8 2 3 3 2 2 4 5 4 6 11 14 15 15 16 17 15 15 17 15 12 12 19 23 21 22 23 21 20 21 22 24 22 21 18 18 21 21 21 23 23 23 24 25 24 22 22 21 20 22 21 19 20 20 18 16 15 15 15 15 15
5 5 2 3 6 5 2 3 2 3 4 3 3 2 2 4 2 1 4 2 1 3 6 6 5 10 4 3 4 3 2 4 5 4 6 10 14 18 17 17 18 17 18 17 14 13 13 17 22 21 23 24 21 21 22 22 24 23 21 20 19 21 22 21 21 22 22 23 24 24 22 22 22 21 23 23 20 23 24 21 18 17 16 16 15 14
5 6 4 5 5 3 1 3 3 3 5 3 3 3 1 1 1 2 2 1 3 6 8 6 9 9 3 1 4 5 3 3 3 2 5 8 12 17 18 18 19 19 21 19 14 14 14 14 21 24 23 24 23 23 24 23 24 23 22 21 19 21 23 21 20 21 22 23 23 24 22 20 21 21 21 22 22 23 24 22 20 20 20 18 15 14
2 5 6 6 4 3 3 3 2 3 5 4 4 4 4 1 1 2 3 3 3 4 3 7 11 6 1 2 4 5 4 5 4 2 3 6 8 12 15 17 19 21 23 20 16 16 12 7 14 23 22 23 25 26 25 24 24 23 22 20 19 21 22 22 21 20 22 23 22 24 23 19 20 21 19 19 20 21 22 22 21 21 21 20 17 14
2 4 5 3 4 5 5 3 0 2 4 4 5 2 3 2 2 3 3 1 2 2 4 8 7 3 4 2 1 3 6 8 7 3 2 4 7 9 11 14 18 20 21 20 18 17 14 7 7 16 21 22 24 26 27 27 26 24 22 20 19 20 23 23 21 20 21 22 21 22 23 21 20 21 20 17 17 18 20 21 21 21 20 19 18 16
1 2 3 7 9 8 4 1 1 3 3 4 3 2 0 3 2 2 1 1 2 0 5 5 2 2 2 1 1 3 5 6 6 4 2 0 3 7 8 8 12 15 17 18 19 18 16 12 6 8 16 21 23 26 29 28 27 25 24 22 19 18 22 22 20 19 20 21 21 20 22 22 21 22 22 19 16 16 16 17 19 20 18 16 16 15
4 2 1 5 8 7 2 3 2 4 2 2 3 2 4 6 1 2 2 4 1 4 4 3 3 3 1 2 3 2 2 4 4 5 5 4 3 2 3 3 4 7 9 12 17 20 17 13 7 3 9 18 23 25 27 27 26 25 24 22 19 17 20 21 19 18 19 20 20 20 20 21 21 21 22 21 18 15 14 14 16 17 16 14 12 11
4 4 4 2 2 3 4 3 5 4 3 2 2 4 5 6 4 3 1 3 2 5 3 3 4 2 1 2 4 5 6 5 6 8 9 11 12 11 9 7 5 2 2 4 9 17 18 14 8 0 4 12 18 20 23 24 24 26 25 22 20 18 18 19 19 18 18 19 20 20 20 20 19 19 19 20 18 17 16 15 14 14 15 14 14 12
4 3 2 2 2 3 3 1 3 5 4 3 4 5 3 3 3 2 1 1 2 4 3 2 3 2 2 1 2 5 8 8 10 10 11 15 16 15 14 12 9 7 3 2 2 8 16 17 13 4 3 4 9 17 22 22 23 26 26 22 19 19 19 18 17 17 18 18 18 19 19 18 18 17 15 15 16 16 16 16 15 14 14 14 16 16
2 2 2 3 1 5 4 2 1 4 5 5 5 5 3 2 0 1 1 2 2 2 3 4 2 1 1 2 3 4 5 6 7 7 6 7 8 7 7 8 6 6 4 1 1 5 12 18 18 10 1 4 3 12 21 21 22 25 24 21 19 19 19 18 17 17 17 17 17 17 17 17 18 17 15 13 13 13 14 14 15 15 14 14 16 17
1 2 2 5 3 2 1 2 2 0 1 3 3 2 2 2 4 3 2 1 2 1 3 4 2 1 2 3 3 2 4 2 2 4 5 4 1 2 3 4 4 6 5 2 1 4 9 16 21 18 8 4 5 6 16 18 16 19 19 18 19 19 19 18 17 17 17 16 16 15 15 16 16 17 16 14 13 14 14 13 13 15 16 15 16 16
2 1 1 4 4 4 4 2 1 5 4 1 1 2 3 3 4 3 3 3 3 2 2 4 4 2 2 1 2 2 2 2 1 0 4 5 1 2 4 4 5 7 6 2 2 1 4 10 17 19 15 8 5 6 11 13 10 14 18 18 18 18 18 18 16 17 16 16 16 15 14 14 13 15 17 17 17 16 16 15 14 15 17 16 16 16
4 1 0 4 3 4 9 6 4 7 6 5 4 3 3 3 4 4 1 3 3 4 3 5 5 2 3 2 1 1 2 2 1 2 6 7 5 5 6 6 7 8 5 1 2 1 3 6 10 13 13 11 8 7 10 10 10 15 18 18 19 18 17 17 16 16 16 16 16 16 16 16 16 16 17 20 21 21 21 20 18 18 19 18 17 17
6 2 3 5 3 4 10 6 4 5 4 4 2 3 3 1 3 4 3 1 2 3 3 5 3 2 3 4 6 5 3 4 2 5 8 11 8 8 9 9 10 10 6 3 4 4 2 4 7 9 7 9 11 9 10 12 13 14 13 14 16 16 15 16 17 17 15 15 16 17 18 19 19 18 17 17 18 19 21 22 21 20 21 21 20 19
2 2 4 4 3 4 6 5 3 4 3 1 2 3 5 5 4 4 3 3 4 4 4 5 1 2 3 4 7 8 6 5 4 6 10 13 11 10 11 12 13 13 10 6 6 7 6 3 2 4 6 9 11 11 10 10 12 13 12 10 10 12 14 16 17 16 15 15 16 17 17 18 19 19 18 16 16 17 19 20 20 20 20 21 22 21
1 1 3 2 2 2 2 2 3 2 3 2 1 6 6 1 4 5 4 4 2 3 5 4 3 2 4 4 4 5 5 6 5 4 10 14 13 12 12 13 12 12 12 10 10 12 11 8 6 5 1 3 6 9 9 8 9 11 12 10 8 11 15 16 16 16 16 16 17 17 17 18 19 19 19 19 18 17 17 18 18 17 18 20 21 21
1 1 3 2 2 3 4 6 6 6 5 3 4 7 7 7 6 4 5 3 3 2 4 3 7 7 6 6 5 4 4 5 5 5 10 14 15 13 12 12 12 13 12 10 12 14 13 11 9 8 6 4 2 5 8 7 6 9 11 11 9 11 15 15 14 14 16 17 18 19 18 19 20 19 18 19 19 17 16 15 16 16 18 20 21 20
2 1 3 7 6 5 7 8 7 7 6 5 6 7 7 7 7 4 4 2 4 6 3 1 7 9 7 6 6 5 4 4 6 7 10 14 16 14 10 9 11 13 13 11 11 12 12 13 11 9 7 6 4 2 6 9 7 5 8 9 7 8 11 12 12 13 16 17 17 18 18 20 22 21 19 18 16 15 15 14 15 16 17 20 22 21
2 1 3 6 8 9 9 8 9 9 6 4 5 6 6 6 6 4 3 4 6 7 3 3 7 8 6 7 6 5 6 8 9 10 11 14 16 13 9 9 10 12 13 12 12 11 11 11 10 9 7 5 4 4 2 4 9 10 11 11 9 7 7 8 10 12 15 15 14 15 16 18 20 20 19 17 15 15 16 16 16 16 16 18 22 23
3 2 4 5 7 9 9 11 14 12 6 4 4 5 5 5 6 5 2 7 11 10 7 8 10 6 4 7 8 7 11 14 13 11 11 13 14 12 10 10 10 11 11 11 12 11 11 10 8 7 7 5 4 4 5 3 3 6 10 16 17 14 10 8 8 10 13 14 14 14 15 16 17 17 16 15 15 16 17 17 18 18 18 18 19 20
4 2 3 3 4 5 9 11 9 6 4 4 5 5 3 2 4 5 2 9 12 9 7 10 10 5 4 9 12 12 13 13 12 10 10 11 12 12 11 11 10 10 10 10 9 9 9 9 7 6 6 6 5 3 4 4 3 3 6 11 15 16 14 11 9 10 12 14 15 14 13 13 13 14 15 15 16 17 17 18 19 20 20 18 17 17
3 2 0 2 2 4 7 8 6 4 4 4 3 3 4 5 5 1 3 4 7 8 7 8 7 4 4 9 13 13 12 12 11 10 10 11 11 11 10 9 10 10 10 9 9 8 9 10 9 8 7 7 6 5 4 3 3 4 4 5 8 12 14 14 12 12 12 12 12 12 13 12 10 10 12 14 15 16 18 19 19 19 19 19 18 18
4 3 2 1 2 4 6 10 11 7 3 2 1 4 7 3 3 7 6 6 8 7 5 5 4 5 7 9 9 9 10 11 10 10 11 12 12 12 10 8 9 10 10 11 11 9 10 11 10 8 8 7 5 4 4 3 4 5 4 4 6 8 11 13 13 13 14 14 13 12 12 11 9 8 10 11 13 15 16 17 18 18 18 18 18 18
4 3 3 3 0 4 7 12 12 3 3 2 3 4 7 6 6 7 8 10 11 9 7 7 7 6 8 9 8 8 10 11 11 11 11 12 12 12 11 8 8 8 10 11 11 10 10 10 8 7 9 8 6 5 5 5 6 6 6 5 6 7 9 11 11 11 11 13 14 15 13 10 8 7 9 9 9 11 13 14 15 16 16 16 16 17
3 2 1 2 1 3 4 6 7 3 3 5 2 5 7 7 8 9 8 9 11 14 13 11 9 8 10 13 14 16 15 14 14 13 11 10 11 11 11 9 7 8 10 11 11 11 10 9 9 9 10 11 10 8 8 8 8 8 8 7 6 7 7 7 8 7 6 7 9 10 11 11 10 9 11 10 7 7 9 10 12 13 14 14 15 16
4 4 2 0 1 2 2 1 1 3 2 3 4 5 5 6 7 8 8 8 8 13 13 10 10 11 15 18 19 19 19 17 14 12 10 10 11 10 10 9 7 7 9 10 11 12 11 9 10 10 11 12 11 10 9 7 7 8 9 8 7 7 6 5 4 3 1 0 1 2 4 6 7 7 8 8 6 4 5 6 8 9 11 12 14 15
5 3 2 1 2 1 0 2 3 1 2 3 3 3 4 6 7 7 6 5 6 11 14 11 10 13 16 18 20 20 20 16 11 7 8 9 10 10 9 9 8 7 8 9 10 11 12 10 9 9 10 11 12 13 11 8 6 8 11 12 12 12 10 9 8 7 6 6 6 4 2 1 1 1 2 2 2 2 3 4 5 6 8 9 11 12
7 5 4 4 2 1 3 3 4 2 1 2 3 1 5 9 12 12 8 2 4 12 19 14 10 14 16 17 20 21 17 10 5 5 8 8 8 9 9 9 8 7 8 8 9 11 14 14 13 12 11 10 12 14 14 13 12 13 14 16 16 15 13 13 13 12 11 11 11 9 7 6 4 4 4 4 3 3 2 1 0 2 3 4 6 7
6 6 5 4 1 2 3 1 3 3 2 4 5 2 8 11 12 13 8 1 1 12 22 18 13 15 17 18 20 18 11 4 2 7 11 11 9 10 11 10 8 7 8 8 8 10 13 14 15 16 13 11 11 13 13 14 15 16 17 18 17 16 16 17 16 15 14 13 10 9 8 7 6 6 6 6 7 6 6 6 5 4 3 3 3 4
1 3 5 4 2 2 2 1 3 2 3 5 6 3 10 11 9 9 4 4 3 13 21 20 17 16 18 21 20 12 5 3 7 12 15 13 11 10 10 10 10 9 9 7 7 11 13 14 15 15 11 9 11 14 15 15 16 18 19 20 19 19 19 19 17 16 15 13 11 9 9 8 7 7 7 7 7 7 7 7 6 6 6 6 6 6
3 1 3 3 4 4 4 3 3 2 2 2 3 4 10 10 7 4 3 6 8 15 19 19 18 16 17 19 16 8 4 5 12 18 17 14 12 11 10 9 9 9 9 6 6 9 12 14 16 14 10 8 10 12 14 14 16 17 18 20 21 21 20 20 19 16 15 13 12 11 11 10 10 9 9 8 7 6 7 7 6 5 5 6 6 7
3 2 1 1 1 2 3 3 2 1 2 2 7 11 9 6 2 2 7 12 17 18 16 17 17 16 16 16 12 10 11 13 18 21 17 15 16 14 11 9 9 9 8 6 6 8 10 13 16 14 10 9 10 10 11 11 12 14 16 18 20 19 18 18 18 17 16 15 13 13 12 11 11 11 11 10 8 7 6 6 5 4 5 6 7 7
1 2 1 1 1 1 2 3 1 2 3 1 4 7 7 2 6 10 14 19 20 19 17 17 17 16 17 16 13 14 16 19 20 20 17 16 16 14 12 11 10 10 9 8 8 7 7 10 12 10 6 5 9 12 13 13 13 13 15 16 17 16 16 15 15 16 16 15 14 13 13 12 11 11 12 12 11 10 10 9 8 7 6 7 8 8
0 1 1 1 2 1 1 2 3 4 1 5 7 4 4 8 14 19 20 19 20 20 18 17 16 16 18 18 18 19 20 21 21 19 17 17 16 14 13 12 11 10 10 10 10 6 5 6 8 7 5 6 11 16 17 16 16 16 17 16 16 16 16 16 14 14 15 14 14 15 15 15 14 14 14 13 13 12 13 13 12 11 11 11 10 10
2 4 4 2 2 2 3 3 6 5 4 14 15 12 14 16 16 16 19 21 22 21 18 17 17 17 18 19 21 22 22 21 21 20 19 18 18 16 15 13 12 12 12 13 11 9 7 9 10 11 11 10 11 14 15 15 15 16 16 15 15 15 16 15 14 14 14 15 16 17 17 18 18 18 18 17 16 15 16 15 14 15 15 14 14 14
2 5 5 3 1 2 3 4 6 4 10 18 16 12 14 15 11 10 15 22 23 19 17 17 18 17 18 20 22 23 21 21 21 21 20 19 18 16 14 13 13 13 13 13 13 12 12 12 13 14 15 13 11 11 13 13 13 13 12 10 11 13 14 14 14 15 15 16 17 18 18 19 19 20 20 19 19 19 19 18 16 16 17 16 16 16
3 2 0 2 2 3 0 4 5 5 10 17 16 11 10 11 9 10 15 19 20 17 16 16 17 16 17 20 21 22 22 21 20 19 20 19 18 15 14 13 13 13 13 13 13 12 13 13 13 14 14 12 11 10 11 11 10 10 9 8 10 11 11 12 12 13 15 16 16 16 17 17 18 19 19 20 20 21 21 20 19 17 17 17 16 15
1 5 4 3 1 3 4 6 5 5 10 18 18 10 8 10 12 15 16 17 18 17 15 15 16 17 19 20 20 22 23 21 19 18 19 19 17 15 15 15 15 14 14 13 12 10 10 11 12 12 11 11 10 9 10 9 8 7 7 10 12 12 10 10 9 9 11 13 13 14 14 14 15 17 17 18 19 20 21 22 21 20 20 20 19 18
5 4 1 4 2 2 2 5 5 4 9 17 16 9 8 12 16 17 16 16 17 18 17 16 15 16 20 20 19 21 23 20 19 19 20 19 18 17 17 18 17 16 15 14 11 9 8 10 11 11 10 10 9 8 9 10 10 9 8 9 11 11 9 8 7 7 9 10 10 10 11 11 12 14 15 16 17 18 19 20 21 21 22 22 22 21
7 5 4 4 1 0 2 6 7 5 6 11 13 12 12 15 16 16 15 14 15 16 18 18 17 17 21 21 19 21 22 20 20 22 22 21 21 20 19 19 18 16 14 13 11 10 10 11 12 12 12 12 11 10 10 10 10 9 9 9 10 10 9 7 6 7 9 8 9 9 7 8 10 12 13 14 16 16 16 18 19 19 20 21 21 21
4 3 2 2 2 1 3 8 11 8 6 9 14 16 16 15 14 15 14 14 15 14 15 20 22 20 20 20 20 21 22 22 22 23 23 22 22 20 18 17 16 15 14 13 13 13 12 12 12 12 12 12 11 10 10 9 9 9 8 8 9 8 7 5 5 7 7 6 5 6 5 6 7 9 10 11 13 13 13 14 15 16 17 18 18 18
Wind_Direction
192 197 222 216 230 232 231 221 229 271 254 171 193 246 171 139 136 150 149 165 166 148 121 130 112 117 139 170 188 197 212 228 263 278 300 308 221 174 184 187 167 168 185 182 178 172 165 169 166 162 161 159 164 165 165 168 165 165 168 168 167 173 171 160 159 157 151 152 151 145 149 153 157 159 162 165 168 172 176 179 183 184 184 185 187 181
192 204 235 227 229 232 236 226 224 313 355 127 223 275 174 134 146 159 153 169 178 150 115 135 120 121 146 166 188 192 203 220 237 257 284 315 225 187 205 190 168 177 186 181 176 166 163 171 168 164 163 164 168 167 168 171 169 173 176 172 171 173 170 163 162 158 152 155 150 145 148 152 159 161 163 166 166 172 173 177 184 183 183 184 185 185
189 223 238 237 247 251 268 304 338 21 17 356 311 303 313 133 140 155 158 169 184 135 128 151 127 135 170 171 184 186 196 232 235 246 270 298 203 204 229 208 174 187 186 176 173 165 166 173 167 165 166 170 172 167 170 175 176 181 178 175 176 174 169 162 156 154 156 158 147 144 151 154 156 156 161 163 164 174 177 182 189 185 183 184 186 191
207 242 231 204 23 8 11 2 349 349 349 308 290 311 289 156 148 158 171 172 191 154 141 150 116 129 166 150 174 187 195 224 238 248 249 262 298 254 249 236 199 196 188 176 175 170 170 174 170 170 170 174 175 169 172 178 183 187 181 178 179 174 168 159 151 154 160 161 156 154 153 154 157 155 160 164 170 185 191 191 193 188 183 185 187 193
244 271 312 55 40 22 13 343 319 318 319 279 268 271 251 195 160 158 172 169 171 137 143 136 88 96 168 142 176 190 180 201 242 264 257 255 282 327 301 268 223 208 197 185 184 179 174 175 173 174 174 178 179 173 176 182 186 190 184 181 181 173 165 160 156 160 163 164 170 172 159 158 171 172 168 174 183 194 196 190 192 189 184 186 189 190
240 327 13 26 5 341 228 265 266 254 270 270 261 250 252 250 159 154 162 156 130 129 171 150 100 289 199 149 172 69 72 36 10 314 280 263 264 312 340 303 285 269 231 203 193 185 180 178 176 177 178 182 183 179 181 186 188 192 191 186 183 175 166 165 165 165 166 168 172 173 167 168 177 178 175 181 187 194 194 189 191 187 182 186 186 187
216 40 38 31 315 294 234 243 233 205 210 255 282 285 277 276 188 158 156 160 152 169 195 183 122 94 125 93 20 31 94 2 1 344 295 275 266 270 319 289 262 267 277 252 214 193 186 179 176 178 181 184 184 183 185 186 188 195 198 192 184 175 171 172 171 168 171 172 172 173 174 175 179 180 181 184 188 193 191 187 187 180 182 187 183 187
207 178 133 156 263 257 242 233 213 201 197 245 327 343 343 342 352 127 138 185 197 126 176 208 121 88 124 113 289 219 150 253 305 319 307 290 273 266 282 269 226 220 259 276 246 211 193 181 179 180 182 187 187 186 187 187 191 200 204 196 184 179 179 179 174 174 178 176 173 175 177 179 181 183 184 183 185 191 188 184 183 179 184 187 182 188
215 172 123 138 242 230 272 281 144 176 209 41 5 345 344 0 3 30 83 289 351 83 151 210 138 81 251 241 288 202 155 211 242 246 271 271 265 258 257 250 226 221 233 240 238 236 211 188 182 182 183 188 188 188 188 187 192 203 209 200 185 183 187 184 180 181 184 180 176 176 179 181 181 180 179 181 183 183 188 195 195 188 188 184 180 188
4 69 96 293 263 158 321 325 56 30 307 18 1 317 310 327 323 334 350 353 21 60 213 211 164 124 265 271 298 229 190 198 207 206 221 235 242 243 241 232 224 226 228 223 226 248 229 195 185 185 184 187 191 190 188 190 195 203 210 206 190 187 190 189 188 189 187 183 180 177 179 182 181 179 176 181 185 182 191 203 203 197 190 182 182 189
184 158 181 247 288 312 301 292 315 275 269 306 318 287 301 298 279 321 336 68 37 328 246 236 182 137 132 253 223 221 233 174 172 197 204 212 223 228 227 220 217 219 223 227 233 242 230 202 192 186 184 189 193 190 188 191 197 202 209 210 198 190 193 194 194 195 191 186 185 182 183 183 181 182 179 180 186 184 187 197 199 199 193 188 192 195
192 153 172 219 249 257 250 273 246 238 255 213 202 242 314 304 248 298 342 72 154 256 240 228 131 102 103 224 202 210 228 168 168 203 203 206 216 219 219 215 213 211 208 218 239 249 242 218 200 189 188 193 191 188 191 193 196 203 209 210 203 194 195 197 196 198 195 189 189 186 186 188 184 185 184 181 185 187 188 195 197 195 197 201 203 202
200 151 169 187 205 226 245 284 251 234 258 227 193 194 174 324 186 179 308 224 209 248 234 180 99 78 63 137 160 184 192 158 159 181 191 203 214 213 213 212 209 209 207 211 228 239 248 235 204 193 195 197 193 191 195 196 198 204 208 208 206 199 198 200 196 197 197 194 194 189 188 193 188 187 192 189 190 193 193 197 196 194 200 207 205 203
191 155 175 166 155 175 207 253 267 240 247 228 208 182 155 176 204 199 231 226 235 254 220 108 90 90 115 95 147 164 126 100 115 123 168 188 204 207 210 212 210 210 212 218 226 223 238 252 198 195 202 200 195 193 193 196 199 204 207 208 208 201 199 203 200 197 198 198 198 193 191 195 189 187 198 202 203 203 200 199 199 198 204 209 207 206
181 175 188 157 147 187 205 191 69 277 253 242 237 180 129 181 214 215 217 239 281 271 74 68 73 137 182 203 189 122 98 97 110 120 158 182 195 202 214 218 212 211 215 223 226 221 233 256 189 193 205 201 194 194 195 196 198 203 209 210 209 203 199 205 205 199 199 201 202 198 194 197 193 188 198 211 213 212 208 205 205 206 210 212 211 211
327 169 135 121 158 198 228 116 47 303 291 290 297 70 64 267 232 204 233 339 285 70 56 37 45 112 156 224 12 88 92 91 106 119 98 313 206 197 211 215 206 211 221 228 224 220 233 245 215 182 199 203 200 197 196 197 200 205 211 212 210 204 201 206 208 204 202 203 205 204 198 201 201 195 199 209 214 214 213 210 208 210 216 217 215 214
2 328 144 130 169 185 74 33 310 295 303 315 349 22 284 286 355 97 333 333 6 83 45 10 71 93 81 25 14 19 74 85 96 96 69 24 10 84 151 171 183 202 220 233 229 226 233 239 230 152 172 194 201 200 198 200 203 205 210 213 213 206 203 207 209 206 205 205 208 209 205 206 209 206 205 210 214 211 211 215 211 211 217 219 218 218
10 300 258 221 192 112 70 343 287 299 350 15 328 308 306 329 23 77 28 330 27 83 52 16 62 71 336 18 347 356 24 33 35 39 34 23 13 15 31 41 35 20 261 257 237 227 230 236 244 324 133 182 195 198 199 200 199 199 203 206 206 205 205 209 212 209 207 207 210 213 212 211 213 214 212 214 216 210 209 215 213 211 216 217 217 225
348 324 256 210 196 167 160 327 291 270 254 203 248 283 316 356 348 12 57 355 63 92 96 80 73 12 357 336 325 12 22 19 31 33 25 20 9 3 15 23 21 19 0 329 282 226 221 226 236 257 64 142 187 192 194 202 207 205 205 206 207 207 206 209 215 215 213 211 211 214 217 218 218 218 218 218 218 216 214 214 212 216 221 219 216 220
319 15 285 271 191 156 157 67 351 266 244 201 230 271 248 195 327 337 157 141 102 114 126 121 118 351 331 276 310 27 33 24 50 63 57 34 2 353 21 22 18 27 37 58 293 237 220 219 221 223 143 86 148 186 187 198 209 210 211 213 214 213 207 208 214 216 215 215 214 216 218 222 222 219 220 220 220 226 229 222 215 222 232 231 224 218
289 102 275 293 350 96 150 211 199 19 39 193 221 285 306 19 42 14 338 28 43 99 120 118 123 286 246 253 302 32 68 57 99 118 123 125 293 326 38 23 12 16 24 52 298 248 235 226 218 216 213 119 82 161 183 190 201 208 212 213 213 213 208 209 216 217 214 212 215 219 221 226 228 223 220 217 217 228 242 241 226 227 239 240 235 230
1 119 289 311 335 352 326 309 30 21 23 50 32 30 27 56 79 46 343 338 16 69 108 123 129 262 256 200 302 330 71 86 238 114 107 108 57 6 31 31 31 16 9 33 33 306 230 228 217 219 226 205 123 128 180 195 207 207 208 211 215 216 210 208 214 218 216 210 207 211 220 230 236 232 223 215 215 220 231 242 237 233 242 245 241 241
17 148 330 317 309 316 304 305 26 13 3 26 13 348 24 59 97 91 20 314 9 39 61 101 112 263 270 172 193 294 46 83 349 357 74 77 34 8 23 38 47 25 0 8 32 347 216 213 212 219 228 212 175 135 148 171 194 201 203 211 217 217 211 209 213 214 213 211 206 203 210 222 229 231 225 217 217 217 216 223 228 224 229 238 242 243
7 340 332 319 301 298 291 285 90 63 17 20 330 303 336 55 129 117 132 153 52 32 56 87 97 252 236 182 165 163 135 103 51 12 63 76 50 24 23 35 56 52 35 42 33 358 283 220 207 202 195 185 181 169 149 149 166 180 187 199 211 215 214 212 216 215 211 214 213 205 208 218 224 230 233 229 228 226 221 223 227 225 222 225 230 232
7 345 337 333 340 335 322 328 31 42 1 279 222 272 256 211 145 96 78 71 52 8 44 91 137 222 173 166 156 150 135 108 73 25 58 78 66 42 31 32 53 68 70 73 60 30 26 51 138 168 172 174 179 184 176 155 159 175 185 191 198 207 211 211 214 215 214 218 216 207 210 221 228 233 238 240 237 232 230 232 235 236 233 229 229 229
148 358 349 28 35 349 335 304 292 304 298 274 325 326 312 8 79 87 81 70 60 354 30 95 157 155 138 151 145 139 129 118 112 63 67 78 72 50 35 31 41 58 66 77 81 59 46 59 64 54 91 203 196 190 183 156 144 165 189 199 189 187 196 203 209 214 219 222 218 211 212 221 228 233 237 242 245 239 233 236 241 241 242 242 239 234
71 44 333 290 225 215 223 238 252 259 270 294 337 328 343 27 48 92 101 99 161 126 49 112 151 147 154 156 136 126 123 115 111 83 67 72 73 61 45 40 43 50 49 55 69 60 46 52 57 44 28 358 287 229 218 196 142 137 165 189 193 187 191 197 203 208 212 215 216 217 219 223 229 236 240 241 245 244 237 239 248 246 244 247 248 242
85 107 286 280 268 250 242 242 252 262 273 311 341 339 351 7 7 47 95 124 144 114 68 176 147 140 155 152 135 138 129 105 99 90 77 74 74 66 54 48 49 55 56 51 56 58 49 47 45 38 30 21 13 311 245 237 227 180 165 174 187 198 201 202 201 201 204 209 217 222 224 227 231 235 238 237 239 239 235 240 248 245 243 245 246 248
102 212 246 277 284 282 276 272 276 277 282 304 318 321 325 327 335 4 51 58 92 112 146 175 132 127 143 135 125 126 113 105 106 102 92 85 79 69 57 49 45 52 60 57 56 62 65 60 48 36 33 28 33 47 49 249 249 239 219 215 230 245 236 221 213 208 207 211 221 229 228 226 229 231 231 231 234 235 237 242 243 239 241 245 244 243
116 229 243 268 288 296 300 295 281 272 283 317 299 303 328 341 333 327 25 78 94 115 138 127 107 98 123 125 119 116 112 113 115 109 101 96 92 85 74 66 58 51 51 51 51 55 63 70 66 49 42 44 45 68 96 127 219 229 218 222 235 247 247 236 229 225 223 223 224 227 227 221 223 229 231 232 236 240 242 243 241 241 247 251 248 243
141 211 239 259 288 292 287 286 275 243 241 274 270 279 290 249 285 310 33 88 93 105 123 120 110 92 95 118 123 123 117 114 114 109 103 102 101 99 92 85 79 68 58 52 50 51 54 58 61 53 44 47 49 62 108 132 159 180 193 211 225 235 236 234 233 227 229 230 226 223 224 222 222 228 235 241 244 246 248 246 243 245 247 247 246 244
163 185 267 321 316 276 272 291 297 251 235 248 247 314 306 236 210 148 86 96 105 123 126 111 112 133 135 124 123 121 115 113 116 116 110 105 102 102 97 89 86 83 75 64 52 50 50 44 44 50 50 48 51 59 83 117 162 180 181 199 217 225 228 233 234 226 217 217 217 211 208 212 220 226 232 238 242 245 246 248 247 245 241 239 240 242
181 167 136 77 332 293 304 313 296 259 221 249 160 51 12 345 123 107 96 75 76 99 116 102 114 146 143 130 121 117 118 122 126 124 118 112 107 104 102 93 87 86 84 76 65 54 48 39 36 50 61 60 60 66 78 106 138 151 151 171 199 211 219 225 230 232 227 223 227 224 212 206 212 229 236 236 238 242 242 244 247 246 244 243 243 242
182 174 142 122 104 291 312 322 312 294 137 221 247 79 60 51 63 78 92 93 88 92 103 111 121 130 132 131 130 129 130 132 133 131 126 124 119 112 108 103 97 92 88 85 81 72 60 48 43 58 71 74 86 99 105 114 127 134 140 157 180 195 207 213 218 231 237 235 240 248 247 240 239 253 265 262 253 250 250 249 250 251 253 254 253 251
123 98 68 91 149 275 312 341 335 327 184 198 177 75 77 79 70 65 72 91 107 112 110 111 117 115 112 116 121 126 128 128 129 129 127 125 122 117 113 109 106 101 93 90 93 91 77 61 60 72 77 74 78 94 103 105 114 126 136 146 160 174 187 199 209 222 236 239 241 245 249 250 252 260 275 287 288 272 263 259 256 255 256 256 254 254
118 102 66 30 221 267 330 29 257 265 224 160 104 84 90 92 83 73 55 45 81 110 116 118 119 114 112 117 123 128 129 124 120 123 131 133 130 127 119 111 107 107 100 94 94 96 89 74 68 74 80 76 70 73 81 89 104 117 124 127 128 130 136 145 160 175 186 254 245 232 236 246 250 249 257 275 291 284 271 266 260 259 259 257 255 255
151 136 114 137 223 224 185 236 244 280 8 18 24 52 82 99 112 109 86 46 69 109 121 121 119 121 125 129 132 133 131 123 114 124 142 143 140 137 131 125 119 119 118 109 98 94 90 84 76 71 78 83 76 65 62 70 95 107 106 104 102 104 112 116 109 99 87 76 72 69 62 349 308 246 236 255 281 276 272 273 267 264 263 263 264 265
158 169 150 151 200 1 28 339 309 309 280 251 243 211 86 102 120 118 106 48 56 113 126 127 126 135 138 138 141 144 142 130 123 156 157 146 137 129 124 126 124 123 127 120 104 97 91 83 75 67 69 83 86 77 71 74 85 90 87 89 96 101 99 95 91 90 89 83 75 69 70 76 81 85 91 98 102 109 119 111 324 280 267 269 276 282
167 162 130 119 121 43 47 353 295 283 241 235 237 171 92 102 120 111 101 296 308 122 132 136 137 143 146 147 151 156 154 138 160 173 164 156 143 124 114 114 115 117 117 101 89 100 100 86 76 72 69 77 89 89 83 82 85 86 80 80 89 93 85 79 80 82 82 82 77 67 67 76 87 90 88 87 89 90 93 94 85 75 66 47 16 355
82 112 98 103 151 162 152 212 282 286 224 245 258 172 114 116 119 103 103 245 195 126 134 142 146 151 153 154 159 164 165 181 179 169 162 157 150 137 123 115 113 111 105 86 80 99 99 85 80 83 82 80 87 90 87 82 81 81 79 78 81 79 70 66 69 72 73 77 79 73 67 66 71 76 76 73 72 73 77 82 78 63 49 43 39 30
354 39 119 140 169 174 180 207 234 237 218 260 331 72 106 108 96 93 187 200 143 126 136 144 147 152 154 155 160 157 130 146 157 156 157 155 149 145 137 127 119 109 100 91 95 102 97 87 85 88 86 80 85 91 90 87 82 78 76 76 75 71 66 62 62 64 66 69 71 67 62 60 62 66 69 69 68 68 71 74 69 49 29 28 34 33
326 318 40 96 162 181 192 219 221 292 293 10 52 52 67 94 126 180 161 144 134 134 142 145 146 152 154 152 151 143 131 135 146 152 155 152 145 141 139 139 136 122 113 110 106 106 105 101 100 104 104 90 82 80 79 81 81 78 77 77 73 71 71 70 65 63 63 65 67 66 61 59 61 62 63 64 65 67 67 65 58 41 22 19 22 23
319 319 332 37 353 241 224 254 218 204 264 263 69 36 24 79 169 160 142 138 142 145 147 148 149 153 154 149 144 143 140 139 145 149 150 148 147 140 131 130 128 123 121 116 112 120 125 116 117 129 133 94 77 75 72 72 75 76 76 77 77 77 78 78 75 72 70 68 68 69 68 66 64 63 63 62 61 63 62 56 48 40 34 34 32 30
337 306 268 24 352 312 245 289 249 226 322 68 94 102 100 130 152 155 147 145 149 149 150 151 151 151 152 149 144 144 143 142 145 146 143 144 145 136 129 132 132 131 132 125 121 130 137 124 125 125 103 80 83 81 73 69 71 72 70 72 77 81 79 75 75 77 76 71 65 63 64 65 65 63 61 60 59 61 61 58 53 50 49 50 51 53
199 186 173 175 235 198 154 194 234 236 97 94 107 123 127 134 153 162 154 149 150 152 154 153 152 153 154 150 146 145 146 148 149 147 144 144 143 138 138 143 144 142 137 128 121 118 107 99 95 87 79 79 88 88 82 75 70 66 64 66 73 77 75 72 69 67 67 67 65 62 60 61 63 63 61 60 61 62 62 60 58 58 58 59 62 64
221 179 169 173 163 84 109 185 209 174 116 115 118 124 134 145 161 163 150 147 149 154 159 157 159 162 158 151 148 148 150 153 153 153 152 151 148 147 148 150 150 149 143 135 131 129 123 112 101 93 87 81 78 86 93 90 81 71 66 67 74 75 70 68 66 61 57 57 59 60 60 59 59 60 60 60 60 61 61 59 57 59 59 59 61 63
329 14 110 195 139 98 145 230 203 161 135 126 121 124 146 158 157 142 140 145 149 155 161 161 164 170 164 156 153 153 154 157 158 158 156 150 144 147 153 152 148 145 140 138 140 141 139 133 124 116 109 99 89 90 98 102 99 92 87 90 96 89 78 72 69 62 56 51 47 49 54 58 59 59 60 61 60 59 60 58 56 58 58 56 54 53
353 22 354 292 216 147 193 209 186 160 140 129 124 133 156 150 138 130 130 140 149 152 155 157 163 170 166 159 158 157 157 160 162 159 153 147 144 150 154 150 144 140 137 137 140 143 146 142 136 132 125 116 107 102 100 102 104 105 107 109 107 99 88 83 81 77 73 67 53 41 40 49 56 55 56 58 56 54 55 53 51 52 52 51 49 47
131 108 280 276 281 100 147 173 152 121 125 129 133 152 156 135 132 132 129 132 141 147 153 157 161 167 165 161 163 163 159 160 165 161 153 150 152 156 157 154 151 150 148 148 150 149 141 135 134 133 128 120 113 106 99 98 96 96 106 115 111 102 92 84 83 93 97 90 77 56 39 36 44 47 48 51 51 49 49 47 44 43 44 44 45 45
142 156 206 223 214 11 210 182 155 130 134 140 144 156 152 137 134 137 137 137 141 148 158 161 160 164 166 165 167 165 159 160 165 161 155 155 158 161 162 160 158 159 161 163 160 149 134 128 128 126 121 116 114 109 104 102 100 97 104 116 120 118 113 99 92 106 113 107 96 85 62 40 37 39 40 44 45 46 46 43 38 37 39 40 41 43
200 199 203 181 165 272 224 172 142 115 109 127 133 138 142 141 140 140 146 154 153 154 166 167 161 162 165 167 168 166 161 163 165 159 155 159 165 169 169 167 166 168 171 167 156 145 138 133 128 122 117 111 105 100 97 98 100 99 105 120 130 133 129 106 84 93 103 104 99 94 84 68 53 39 31 32 35 37 37 34 31 30 33 37 39 41